Current Version              Previous Version:    01  02  03  04  05  06  07  08  09  10  11  12  13  14  15  16  17  18  19  20  21  22  23  24  25  26  27  28  29  30  
   31  32  33  34  35  36  37  38  39  40  41  42  43  44  45  46  47  48  49  50  51  52  53  54  55  56  57  58  59  60  

[Printable]
469
ASUS44 KFWD 311901
RWRTX
NORTH TEXAS HOURLY WEATHER ROUNDUP
NATIONAL WEATHER SERVICE FORT WORTH TX
100 PM CST SAT JAN 31 2015

NOTE: "FAIR" INDICATES FEW OR NO CLOUDS BELOW 12,000 FEET WITH NO
SIGNIFICANT WEATHER AND/OR OBSTRUCTIONS TO VISIBILITY.

TXZ118-119-312000-
DALLAS/FORT WORTH METROPLEX

CITY           SKY/WX    TMP DP  RH WIND       PRES   REMARKS
DFW AIRPORT    LGT RAIN  52  37  56 SE12      30.09F
DALLAS LOVE    CLOUDY    53  36  52 SE14      30.10F
FTW MEACHAM    CLOUDY    51  39  63 SE16      30.07F
DAL-EXECUTIVE  CLOUDY    53  36  52 SE13      30.09F
FTW-ALLIANCE   CLOUDY    51  36  56 SE14      30.07F
FTW-SPINKS     CLOUDY    52  39  62 SE12      30.10F
ARLINGTON      CLOUDY    52  37  56 SE13      30.09F
GRAND PRAIRIE  CLOUDY    52  41  66 SE9       30.10F
MESQUITE       CLOUDY    52  36  54 SE12      30.12F
LANCASTER      CLOUDY    51  36  57 SE10      30.12F
$$

TXZ091>094-102>105-117-120-121-131>134-312000-
NORTH CENTRAL TEXAS

CITY           SKY/WX    TMP DP  RH WIND       PRES   REMARKS
SHRMAN/DENISON CLOUDY    51  36  57 SE14      30.10F
BRIDGEPORT     CLOUDY    49  38  63 SE13      30.09F
DENTON         CLOUDY    50  35  56 SE13      30.09F
MCKINNEY       CLOUDY    52  35  52 SE13      30.10F
GREENVILLE     PTSUNNY   55  32  41 SE12      30.12F
ROCKWALL       CLOUDY    52  35  52 E12G17    30.11F
TERRELL        CLOUDY    57  37  47 SE13      30.12F
WAXAHACHIE     LGT RAIN  50  40  69 SE8       30.12F
GRANBURY       LGT RAIN  49  42  75 SE10      30.07F
$$

TXZ083>090-098>101-113>116-127>130-139>142-154-155-312000-
WESTERN NORTH TEXAS

CITY           SKY/WX    TMP DP  RH WIND       PRES   REMARKS
WICHITA FALLS  RAIN      43  40  89 SE10      30.03F FOG     WCI  37
WF-KICKAPOO    LGT RAIN  38  35  89 SE10      30.05F WCI  30
VERNON         CLOUDY    44  38  82 SE9       30.04F WCI  39
ABILENE        LGT RAIN  47  45  93 SE13      30.00F FOG
ABILENE-DYESS  LGT RAIN  47  47 100 SE13      29.98F
MINERAL WELLS  CLOUDY    48  38  68 SE14      30.04F
COMANCHE       RAIN      46  46 100 SE7       30.05F
BROWNWOOD      LGT RAIN  48  48 100 SE13G18   30.03F
BRADY          LGT RAIN  48  48 100 SE13      29.99F
$$

TXZ143>147-156>162-174-175-312000-
CENTRAL TEXAS

CITY           SKY/WX    TMP DP  RH WIND       PRES   REMARKS
WACO           CLOUDY    50  41  71 SE7       30.09F
WACO-TSTC      CLOUDY    52  43  71 SE9       30.08F
WACO-MCGREGOR  CLOUDY    50  39  66 SE10      30.09F
CORSICANA      CLOUDY    55  40  56 SE13      30.12F
MEXIA          CLOUDY    53  41  65 E9        30.09F
HEARNE         MOSUNNY   59  47  64 SE14G21   30.10F
TEMPLE         CLOUDY    52  39  62 E10       30.06F
KILLEEN        CLOUDY    46  45  93 SE9       30.05F FOG
KILLEEN-SKYLRK CLOUDY    48  39  71 SE8       30.04F
FORT HOOD      CLOUDY    48  43  84 SE12      30.05F HAZE
HAMILTON       CLOUDY    47  47 100 SE13      30.06F FOG
LAMPASAS       LGT SNOW  48  47  97 SE7       30.05F
$$

TXZ095>097-106>112-122>126-135>138-148>153-164>167-312000-
EAST TEXAS

CITY           SKY/WX    TMP DP  RH WIND       PRES   REMARKS
PARIS          CLOUDY    54  32  43 SE10      30.17F
GILMER         CLOUDY    53  32  46 E7        30.16F
MINEOLA        CLOUDY    54  30  40 SE7       30.17F
TYLER          CLOUDY    56  34  43 S13       30.15F
LONGVIEW       CLOUDY    56  33  42 SE10      30.16F
PALESTINE      CLOUDY    55  40  57 SE8       30.15F
NACOGDOCHES    CLOUDY    55  36  47 SE8       30.18F
LUFKIN         CLOUDY    59  39  47 SE7       30.16F
$$

SUPPLEMENTAL OBSERVATIONS (CENTRAL)

CITY           SKY/WX    TMP DP  RH WIND       PRES   REMARKS
$$

SUPPLEMENTAL OBSERVATIONS (WEST)

CITY           SKY/WX    TMP DP  RH WIND       PRES   REMARKS
$$

SUPPLEMENTAL OBSERVATIONS (EAST)

CITY           SKY/WX    TMP DP  RH WIND       PRES   REMARKS
$$

SUPPLEMENTAL OBSERVATIONS ARE A COLLECTION OF AUTOMATED INSTRUMENTS
THAT ARE MAINTAINED BY A VARIETY OF FEDERAL AND STATE AGENCIES.
CERTAIN ELEMENTS...SUCH AS HUMIDITY VALUES AND SUSTAINED WIND
SPEEDS...MAY BE APPROXIMATED.